Tracking 30058 objects as of 9-Dec-2024
HD Live streaming from Space Station
objects crossing your sky now

ISO

Track ISO now!
ISO is classified as:


NORAD ID: 23715
Int'l Code: 1995-062A
Perigee: 612.4 km
Apogee: 69,974.2 km
Inclination: 5.6 °
Period: 1,410.6 minutes
Semi major axis: 41664 km
RCS: 3.9811 m2 (large)
Launch date: November 17, 1995
Source: European Space Agency (ESA)
Launch site: FRENCH GUIANA (FRGUI)
Your satellite tracking list
Your tracking list is empty




NASA's NSSDC Master Catalog

Two Line Element Set (TLE):
1 23715U 95062A   24342.64236278 -.00000127  00000-0  49358-2 0  9995
2 23715   5.5792 324.7151 8323882 254.4286  11.0440  1.02083831108012
Source of the keplerian elements: AFSPC